USA 149 (DSP 20)

Last updated on Tue Sep 22 2026 00:03:10 GMT+0000 (Coordinated Universal Time)

1 26356U 00024A 26263.73807391 -.00000155 00000+0 00000+0 0 9995 2 26356 13.2711 11.2359 0001901 291.1640 72.3153 0.99007803 33883
UTC large
Height (km)
Speed (km/s)
/
Latitude / Longitude
Inclination (degrees)
Orbital Period (minutes)
Azimuth
Elevation
Range (km)
Doppler Factor

Next 0 passes for location: London (51.5072 / 0.1276)

No passes found over London.
USA 149 (DSP 20)